Wetbulb
68.49 73.02 75.77 76.18 75.95 76.14 76.01 74.95 75.71 75.37 74.91 74.36 73.67 73.44 72.94 72.26 71.81 71.97 72.00 71.90 73.05 73.38 73.66 73.65 73.32 73.23 73.03 72.82 72.51 70.99 70.41 69.76 69.46 69.31 69.59 69.54 68.89 69.24 69.01 68.76 68.31 65.46 68.75
70.88 73.45 75.44 75.97 75.83 75.81 75.78 75.37 74.20 75.05 74.59 74.26 73.01 72.43 71.82 71.58 71.66 72.27 72.17 72.05 73.23 73.37 73.40 73.54 73.43 72.91 72.45 71.88 70.90 70.09 69.47 68.99 69.04 68.99 68.59 66.81 67.28 68.06 68.25 68.76 68.99 67.46 69.10
71.78 73.39 74.31 75.59 75.64 75.48 75.60 75.33 75.10 75.02 74.40 73.84 73.32 72.41 72.44 73.08 73.75 73.66 72.42 72.97 73.37 73.37 73.24 73.26 73.15 72.40 71.02 70.10 69.48 69.15 68.93 68.92 68.79 68.35 67.45 65.34 65.89 68.64 68.26 69.18 69.39 68.48 68.87
72.59 73.32 73.71 75.17 75.71 75.43 75.35 75.05 74.99 74.89 74.56 73.90 73.22 73.34 73.44 72.99 73.44 72.98 72.76 73.43 73.32 73.27 73.13 72.67 72.39 71.76 70.67 69.74 69.09 69.12 68.99 68.62 68.00 66.66 63.41 63.88 65.38 68.59 69.05 68.92 67.88 67.93 67.63
71.97 73.02 73.77 75.12 75.60 75.42 75.06 74.77 74.80 74.69 74.56 74.30 73.86 73.36 73.36 73.32 72.89 72.73 73.27 73.72 73.30 73.17 73.01 71.61 70.94 71.19 70.96 69.80 68.97 68.96 68.86 68.23 67.08 64.44 62.31 63.25 64.57 67.95 69.05 68.40 66.95 68.47 68.30
71.54 69.51 73.74 75.12 75.51 75.16 74.96 74.50 74.70 74.71 74.61 74.51 74.27 73.98 73.85 73.64 73.29 73.08 73.37 73.11 72.80 72.66 72.08 70.44 70.23 70.85 71.65 69.89 69.07 68.79 68.50 67.49 65.26 62.61 62.71 64.95 64.50 68.65 67.48 68.56 67.27 67.54 67.91
71.72 72.42 73.24 74.93 75.07 75.15 74.91 74.65 74.48 74.54 74.55 74.34 74.22 74.06 74.33 73.73 73.60 73.50 73.02 72.73 72.37 72.40 71.28 70.01 69.75 70.84 70.89 69.84 68.92 68.60 67.68 65.83 61.72 61.24 61.70 63.16 64.71 68.15 67.96 67.18 67.22 67.04 67.47
70.63 71.86 72.89 72.80 73.83 74.23 74.51 74.79 74.34 74.58 74.31 74.10 73.59 73.72 73.58 73.59 73.41 72.90 72.64 72.42 72.10 71.81 70.90 69.65 69.34 69.64 69.81 69.16 68.44 67.79 66.76 65.24 62.65 61.86 62.39 64.02 67.41 68.09 67.38 67.03 66.87 66.95 66.90
68.96 69.73 71.27 71.59 72.08 72.43 73.14 73.89 73.95 74.24 73.79 73.68 73.42 72.95 72.57 72.23 72.73 72.47 72.31 72.10 71.73 71.53 70.70 70.11 69.35 70.18 69.49 68.77 68.07 67.26 66.31 64.89 61.59 62.30 63.29 63.04 66.66 67.66 67.10 66.42 66.46 66.52 66.28
61.98 66.42 68.64 70.00 70.23 70.84 71.78 71.91 72.56 72.80 72.85 72.86 72.23 71.13 69.85 69.65 70.84 71.76 70.73 70.76 71.16 71.02 70.25 69.79 69.64 70.50 69.50 68.63 67.65 66.96 65.97 64.44 61.24 62.18 62.88 63.97 67.81 66.98 66.94 66.60 66.48 66.08 65.90
54.97 59.22 65.28 67.41 69.07 69.86 70.40 70.56 70.25 70.61 70.12 70.74 70.09 68.40 68.33 70.10 70.06 69.11 68.26 68.85 69.78 70.31 69.84 69.63 69.40 69.61 68.99 67.63 67.30 66.07 63.81 60.98 61.08 62.10 62.90 67.67 67.55 67.33 66.93 66.40 66.01 66.07 65.70
50.57 55.88 61.95 65.08 67.14 68.66 70.20 69.94 69.29 69.40 69.87 70.56 69.47 68.97 70.02 69.80 69.21 68.47 67.03 67.96 69.47 69.13 68.68 69.18 68.44 67.93 64.91 62.88 63.23 63.60 60.67 60.20 61.25 61.89 63.04 67.76 67.25 67.15 66.76 66.22 65.76 65.48 65.28
50.37 55.41 58.19 61.40 63.80 67.63 68.37 68.69 68.64 68.73 69.37 69.02 68.41 69.75 69.79 69.53 67.37 67.12 66.90 66.92 65.77 64.73 64.52 65.59 64.36 60.06 59.49 60.03 60.39 59.74 59.52 59.54 60.49 61.92 64.48 67.59 67.61 67.08 66.59 66.02 65.56 65.12 64.82
48.57 52.08 56.17 59.77 61.48 65.15 67.51 67.76 68.18 68.48 68.64 68.79 69.04 69.65 68.76 67.77 67.00 66.19 65.61 64.04 63.52 62.47 61.81 61.03 59.60 58.10 57.80 58.26 58.84 58.76 58.98 59.71 59.97 61.48 62.89 66.00 67.78 67.10 66.68 66.22 65.61 65.01 64.59
48.37 50.57 52.62 57.01 59.20 62.17 65.68 67.12 67.82 68.26 68.54 68.94 68.91 69.15 68.49 67.28 66.46 65.76 64.66 63.50 62.25 61.01 60.52 58.84 57.63 56.90 56.86 57.65 58.43 59.16 59.26 59.36 59.99 61.23 61.75 63.80 66.51 67.60 66.81 66.39 65.92 65.52 65.03
47.80 49.51 52.20 54.91 57.91 59.97 63.74 66.17 66.54 68.43 69.33 68.87 68.73 68.57 68.27 67.41 66.58 65.57 64.22 62.74 61.31 61.27 59.42 58.14 57.26 56.91 57.44 58.27 58.39 58.30 59.05 59.44 59.91 60.49 61.08 61.83 65.11 66.76 67.29 66.88 66.64 66.27 65.88
46.90 48.66 50.53 52.78 56.37 57.89 60.57 64.37 65.94 67.94 69.38 68.61 68.46 68.79 68.02 67.38 66.33 65.48 63.71 62.57 61.59 60.45 58.84 57.49 57.14 57.87 58.42 58.50 58.30 57.26 58.74 59.12 59.77 60.17 60.45 60.74 62.30 63.96 66.24 67.18 67.25 67.24 67.19
46.85 47.40 49.87 53.12 56.17 57.00 58.69 61.87 65.45 66.68 67.88 68.25 68.39 68.31 67.78 67.40 66.65 65.50 64.04 62.38 61.24 60.17 59.10 57.76 57.46 57.44 57.86 56.28 55.85 56.40 57.90 59.04 59.20 59.23 60.04 60.55 61.13 62.32 63.53 65.87 66.95 67.65 67.32
45.46 46.60 47.67 51.62 53.71 56.39 57.68 60.39 62.82 65.76 66.82 67.55 67.87 67.74 67.37 67.19 66.34 65.37 64.20 62.40 61.38 60.41 59.19 58.53 56.79 57.27 55.96 55.53 55.50 55.08 56.08 57.68 58.72 60.10 59.21 59.72 60.21 61.10 61.17 62.37 62.88 63.30 64.51
44.36 45.59 46.71 48.48 52.38 54.70 57.06 58.79 61.11 63.82 65.30 66.89 67.53 67.37 67.19 66.85 66.30 65.22 63.87 62.05 61.53 60.17 58.78 58.24 56.91 56.35 56.39 56.63 57.16 56.65 56.47 55.82 56.25 56.70 57.82 59.65 59.76 60.10 60.33 59.90 59.22 59.51 62.03
43.54 44.18 45.74 47.25 51.43 53.88 55.31 57.30 59.80 60.30 63.39 62.78 66.37 66.70 66.78 66.80 66.11 65.18 64.27 62.69 61.35 59.95 59.16 58.90 56.53 56.61 56.59 57.92 56.71 56.17 56.80 57.32 57.01 57.03 57.36 56.92 57.62 58.46 58.98 59.21 58.87 58.55 60.28
42.67 43.91 44.86 46.87 49.87 53.78 54.39 57.73 57.60 60.00 61.34 62.41 64.64 64.99 66.14 66.54 65.61 65.32 64.32 62.91 61.55 60.02 58.82 58.34 56.80 56.44 56.99 58.60 56.45 55.49 54.13 56.00 56.34 57.02 57.23 57.96 57.60 57.61 57.15 57.30 57.86 57.50 56.69
41.68 42.73 44.52 46.13 48.71 53.05 54.43 57.45 57.49 58.08 58.24 61.07 63.10 64.52 64.43 66.24 65.51 65.24 64.36 63.52 62.41 60.85 59.06 58.34 57.67 58.07 56.75 57.90 57.61 56.39 52.11 52.33 53.91 55.44 55.43 56.10 56.04 55.52 54.92 55.07 55.56 55.53 54.91
41.75 43.76 44.72 46.14 47.91 51.29 54.01 55.19 56.14 55.70 55.90 58.28 60.74 63.34 64.12 64.94 65.56 64.91 64.33 63.60 62.72 61.79 60.33 58.66 58.61 58.68 57.99 57.68 57.15 58.24 56.83 55.72 53.24 52.63 54.45 54.28 54.59 54.33 53.97 53.70 53.64 53.57 52.98
41.84 43.63 45.01 46.07 47.58 50.55 53.00 54.19 55.68 55.71 56.58 57.79 59.68 61.82 63.98 63.69 65.58 65.04 64.60 63.72 62.77 62.22 61.16 60.00 58.40 58.36 59.72 59.23 58.43 57.16 55.94 55.73 54.89 53.67 51.63 52.50 53.25 53.69 53.51 53.45 52.43 51.59 51.14
41.96 43.91 45.23 46.11 47.27 49.70 52.50 54.06 54.23 55.52 56.33 57.07 58.50 60.72 61.77 62.94 63.87 64.83 64.28 63.46 62.92 62.24 61.02 60.11 59.59 59.62 60.02 60.16 60.34 58.34 57.34 56.07 54.85 52.97 50.77 51.01 52.06 52.56 52.68 51.97 51.03 50.51 50.14
MSLP
1011.84 1011.59 1011.73 1011.93 1012.23 1012.58 1012.95 1013.32 1013.71 1014.01 1014.24 1014.40 1014.75 1015.11 1015.37 1015.63 1015.92 1016.16 1016.38 1016.38 1016.62 1016.82 1016.81 1016.96 1017.23 1017.42 1017.61 1017.91 1018.09 1018.36 1018.56 1018.75 1018.93 1019.05 1019.03 1019.06 1019.04 1019.06 1019.12 1019.13 1019.13 1019.09 1019.02
1011.54 1011.71 1011.98 1012.17 1012.50 1012.91 1013.13 1013.42 1013.72 1014.21 1014.58 1014.73 1014.92 1015.27 1015.65 1015.83 1016.08 1016.29 1016.43 1016.59 1016.64 1016.88 1017.05 1017.21 1017.43 1017.74 1018.02 1018.35 1018.70 1018.94 1019.09 1019.25 1019.40 1019.45 1019.47 1019.46 1019.41 1019.40 1019.49 1019.44 1019.50 1019.48 1019.47
1011.37 1011.65 1012.04 1012.40 1012.78 1013.18 1013.45 1013.73 1014.00 1014.20 1014.69 1015.00 1015.17 1015.38 1015.67 1015.94 1016.05 1016.27 1016.61 1016.65 1016.82 1016.98 1017.42 1017.61 1017.74 1018.08 1018.47 1018.78 1019.13 1019.40 1019.47 1019.65 1019.79 1019.88 1019.83 1019.77 1019.82 1019.81 1019.77 1019.91 1019.93 1019.83 1019.91
1011.44 1011.69 1012.14 1012.41 1012.78 1013.27 1013.69 1014.00 1014.30 1014.51 1014.72 1015.20 1015.36 1015.64 1015.80 1016.08 1016.27 1016.50 1016.68 1016.86 1017.06 1017.24 1017.56 1017.99 1018.17 1018.50 1018.91 1019.15 1019.43 1019.66 1019.82 1019.99 1020.08 1020.18 1020.30 1020.15 1020.06 1020.10 1020.18 1020.27 1020.26 1020.34 1020.30
1012.08 1011.73 1012.18 1012.54 1012.86 1013.29 1013.75 1014.23 1014.48 1014.76 1015.01 1015.23 1015.51 1015.71 1016.04 1016.21 1016.42 1016.72 1016.94 1017.14 1017.34 1017.58 1017.72 1018.28 1018.75 1018.95 1019.15 1019.41 1019.67 1019.93 1020.09 1020.30 1020.43 1020.50 1020.58 1020.54 1020.42 1020.54 1020.59 1020.73 1020.65 1020.76 1020.73
1012.30 1012.44 1012.21 1012.62 1012.98 1013.34 1013.72 1014.15 1014.56 1014.87 1015.13 1015.32 1015.73 1015.88 1016.09 1016.33 1016.57 1016.83 1017.21 1017.49 1017.84 1017.91 1018.04 1018.40 1019.00 1019.12 1019.34 1019.66 1019.93 1020.18 1020.38 1020.62 1020.82 1021.02 1021.04 1020.79 1020.82 1020.89 1020.89 1021.03 1021.07 1021.16 1021.23
1012.45 1012.49 1012.73 1012.67 1012.89 1013.24 1013.64 1014.07 1014.43 1014.77 1015.15 1015.51 1015.69 1015.94 1016.22 1016.48 1016.79 1017.05 1017.40 1017.79 1018.06 1018.25 1018.37 1018.66 1019.10 1019.36 1019.61 1019.83 1020.20 1020.44 1020.73 1021.00 1021.26 1021.43 1021.47 1021.27 1021.15 1021.21 1021.25 1021.26 1021.37 1021.57 1021.62
1012.77 1012.64 1012.68 1012.70 1013.01 1013.27 1013.57 1014.02 1014.34 1014.68 1015.00 1015.53 1015.90 1016.13 1016.36 1016.66 1016.98 1017.37 1017.61 1018.02 1018.31 1018.54 1018.82 1018.96 1019.17 1019.59 1019.86 1020.08 1020.42 1020.77 1021.02 1021.28 1021.56 1021.71 1021.67 1021.53 1021.54 1021.61 1021.62 1021.66 1021.75 1021.77 1021.88
1013.01 1012.89 1012.56 1012.86 1013.09 1013.08 1013.54 1013.96 1014.22 1014.69 1015.06 1015.38 1015.83 1016.30 1016.58 1016.92 1017.17 1017.51 1017.87 1018.16 1018.52 1018.92 1019.14 1019.36 1019.33 1019.65 1020.03 1020.34 1020.63 1021.08 1021.32 1021.54 1021.84 1021.93 1021.93 1021.89 1021.75 1021.83 1021.96 1021.97 1022.03 1022.04 1022.26
1013.67 1013.37 1013.22 1012.88 1013.11 1013.33 1013.67 1013.93 1014.29 1014.55 1015.03 1015.44 1015.72 1016.08 1016.67 1017.02 1017.34 1017.68 1017.98 1018.28 1018.64 1019.08 1019.44 1019.66 1019.65 1019.81 1020.20 1020.54 1020.85 1021.26 1021.60 1021.79 1022.05 1022.16 1022.18 1022.06 1021.98 1022.04 1022.13 1022.38 1022.44 1022.45 1022.57
1014.07 1013.99 1013.75 1013.47 1013.37 1013.37 1013.47 1013.82 1014.31 1014.48 1014.95 1015.38 1015.91 1016.28 1016.57 1017.05 1017.56 1017.93 1018.10 1018.38 1018.73 1019.10 1019.57 1019.73 1019.98 1020.09 1020.36 1020.70 1021.01 1021.45 1021.76 1022.15 1022.30 1022.42 1022.39 1022.19 1022.21 1022.33 1022.52 1022.66 1022.79 1022.79 1022.87
1015.01 1014.49 1014.27 1013.92 1013.73 1013.66 1013.52 1013.82 1014.15 1014.57 1014.93 1015.39 1015.93 1016.42 1016.86 1017.05 1017.32 1017.91 1018.38 1018.61 1018.79 1019.12 1019.55 1019.90 1020.11 1020.41 1020.65 1021.00 1021.43 1021.61 1022.07 1022.29 1022.43 1022.51 1022.47 1022.29 1022.36 1022.53 1022.69 1022.89 1023.02 1023.13 1023.13
1015.39 1014.80 1014.41 1014.33 1014.05 1013.85 1013.73 1014.06 1014.30 1014.57 1015.01 1015.45 1015.85 1016.31 1016.75 1017.30 1017.71 1017.96 1018.37 1018.80 1019.15 1019.27 1019.67 1020.05 1020.36 1020.72 1021.01 1021.29 1021.64 1021.96 1022.22 1022.45 1022.49 1022.50 1022.44 1022.45 1022.53 1022.71 1022.89 1023.03 1023.11 1023.24 1023.31
1015.50 1015.03 1014.57 1014.38 1014.38 1014.06 1013.96 1013.87 1014.14 1014.45 1014.94 1015.29 1015.71 1016.10 1016.49 1017.17 1017.78 1018.03 1018.38 1018.72 1019.06 1019.45 1019.72 1020.13 1020.71 1020.87 1021.22 1021.41 1021.62 1022.03 1022.28 1022.45 1022.66 1022.59 1022.59 1022.58 1022.62 1022.77 1022.94 1023.05 1023.20 1023.27 1023.39
1015.50 1015.09 1014.69 1014.51 1014.42 1014.21 1013.98 1013.85 1013.62 1014.03 1014.55 1015.04 1015.59 1015.91 1016.32 1016.98 1017.49 1018.04 1018.35 1018.76 1019.01 1019.37 1019.68 1020.22 1020.67 1021.11 1021.33 1021.49 1021.62 1021.92 1022.20 1022.40 1022.56 1022.61 1022.64 1022.67 1022.74 1022.85 1022.96 1023.09 1023.19 1023.29 1023.32
1015.00 1014.88 1014.54 1014.42 1014.25 1014.04 1014.07 1013.86 1013.73 1013.57 1014.09 1014.70 1015.37 1015.46 1015.89 1016.53 1017.20 1017.93 1018.38 1018.73 1019.16 1019.32 1019.62 1020.06 1020.49 1020.90 1021.29 1021.44 1021.60 1021.82 1022.07 1022.28 1022.41 1022.59 1022.69 1022.74 1022.83 1022.89 1022.92 1022.95 1023.01 1023.20 1023.24
1014.33 1014.18 1014.14 1014.13 1014.02 1014.01 1013.90 1013.81 1013.58 1013.28 1013.67 1014.28 1014.72 1015.15 1015.51 1015.92 1016.58 1017.38 1018.02 1018.70 1018.96 1019.41 1019.71 1020.11 1020.67 1020.82 1021.12 1021.37 1021.56 1021.76 1021.95 1022.18 1022.32 1022.46 1022.65 1022.79 1022.85 1022.89 1022.98 1022.94 1022.90 1022.96 1023.01
1013.83 1013.72 1013.52 1013.51 1013.58 1013.62 1013.65 1013.56 1013.37 1013.25 1013.17 1013.62 1014.18 1014.74 1015.13 1015.57 1016.06 1016.92 1017.45 1018.18 1018.80 1019.45 1019.87 1020.17 1020.46 1021.03 1021.10 1021.29 1021.49 1021.73 1021.83 1022.09 1022.19 1022.29 1022.52 1022.65 1022.81 1022.91 1022.98 1023.01 1023.00 1022.93 1022.98
1013.20 1013.14 1012.98 1013.01 1013.10 1013.15 1013.16 1013.13 1013.09 1012.85 1012.91 1013.05 1013.72 1014.20 1014.79 1015.23 1015.61 1016.40 1017.13 1017.81 1018.37 1019.18 1019.75 1020.22 1020.54 1020.82 1021.26 1021.37 1021.43 1021.62 1021.78 1021.96 1022.10 1022.17 1022.36 1022.50 1022.59 1022.81 1022.97 1022.96 1022.95 1022.95 1023.01
1012.28 1012.37 1012.32 1012.23 1012.40 1012.60 1012.73 1012.80 1012.93 1012.91 1012.59 1012.60 1013.09 1013.63 1014.10 1014.71 1015.15 1015.73 1016.63 1017.25 1017.99 1018.62 1019.57 1020.02 1020.30 1020.70 1020.94 1021.34 1021.53 1021.76 1021.94 1021.94 1022.03 1022.11 1022.17 1022.28 1022.45 1022.54 1022.66 1022.78 1022.87 1022.90 1022.92
1011.38 1011.59 1011.62 1011.73 1011.75 1011.99 1012.33 1012.46 1012.62 1012.41 1012.38 1012.62 1012.76 1013.14 1013.25 1013.81 1014.49 1015.29 1015.84 1016.51 1017.15 1017.95 1018.63 1019.50 1020.09 1020.52 1020.85 1021.25 1021.90 1022.32 1022.30 1022.10 1022.05 1022.04 1022.08 1022.15 1022.25 1022.45 1022.51 1022.64 1022.85 1022.95 1022.95
1010.43 1010.49 1010.67 1010.81 1011.01 1011.15 1011.43 1011.68 1011.75 1011.85 1011.96 1012.14 1012.24 1012.43 1012.44 1013.35 1014.12 1014.65 1015.29 1016.11 1016.69 1017.59 1018.23 1019.03 1019.31 1020.09 1020.50 1020.77 1021.29 1021.84 1022.38 1022.40 1022.17 1022.10 1022.11 1022.24 1022.25 1022.52 1022.67 1022.70 1022.92 1022.98 1023.17
1009.48 1009.47 1009.73 1009.81 1010.10 1010.31 1010.62 1011.03 1011.41 1011.46 1011.61 1011.82 1012.02 1012.19 1012.55 1012.77 1013.45 1014.07 1014.76 1015.55 1016.18 1017.07 1017.76 1018.34 1018.93 1019.11 1019.83 1020.38 1020.46 1020.72 1021.85 1021.87 1022.04 1022.18 1022.13 1022.24 1022.38 1022.58 1022.69 1022.72 1022.85 1023.03 1023.14
1008.26 1008.55 1008.75 1008.93 1009.08 1009.38 1009.73 1010.05 1010.35 1010.62 1010.98 1010.99 1011.27 1011.51 1011.84 1012.17 1012.56 1012.95 1013.90 1014.72 1015.46 1016.36 1016.98 1017.76 1018.31 1018.68 1019.10 1019.76 1020.42 1020.22 1020.18 1020.54 1021.42 1022.29 1022.30 1022.29 1022.29 1022.55 1022.61 1022.66 1022.84 1022.95 1023.25
1007.42 1007.58 1007.65 1007.95 1008.30 1008.43 1008.78 1009.10 1009.48 1009.84 1010.21 1010.37 1010.77 1010.89 1011.21 1011.71 1012.00 1012.35 1012.95 1013.68 1014.68 1015.58 1016.23 1016.94 1017.65 1018.12 1018.46 1018.83 1019.23 1019.89 1020.19 1020.40 1020.65 1021.24 1021.98 1022.27 1022.38 1022.44 1022.48 1022.52 1022.93 1022.97 1023.10
1006.87 1007.00 1007.18 1007.30 1007.25 1007.45 1007.80 1008.22 1008.64 1009.03 1009.48 1009.89 1010.17 1010.45 1010.77 1011.19 1011.68 1011.76 1012.59 1013.22 1013.52 1014.51 1015.51 1016.22 1016.91 1017.59 1017.81 1018.13 1018.53 1018.93 1019.13 1019.68 1020.22 1020.62 1021.30 1021.80 1022.01 1022.31 1022.45 1022.41 1022.72 1022.69 1022.82
Wind_Speed
2 7 17 17 18 18 18 19 16 17 17 19 20 19 19 19 19 18 17 17 14 14 16 17 18 18 19 18 19 17 18 18 17 16 15 15 17 17 17 15 12 8 17
8 9 16 16 17 17 17 18 19 17 16 17 20 19 19 19 19 19 17 17 16 16 16 18 19 20 19 18 18 18 18 18 17 15 12 16 16 16 16 15 14 15 16
12 11 12 16 17 16 16 16 16 17 18 17 18 20 21 19 18 19 17 16 16 17 17 18 19 20 19 18 18 18 18 17 14 12 8 6 8 15 16 14 15 16 16
10 11 11 16 17 17 15 15 16 17 18 17 17 17 19 19 17 18 17 16 18 18 18 17 18 19 18 18 18 17 16 13 11 9 5 4 10 14 14 17 14 16 15
5 10 10 15 16 17 16 16 15 16 16 18 17 18 17 17 17 17 15 16 17 16 18 18 15 14 17 17 16 16 15 13 12 8 6 6 6 12 15 15 13 14 16
4 2 9 16 16 17 16 17 15 16 16 17 17 17 17 16 16 16 14 16 15 18 19 18 15 13 16 16 15 15 15 13 10 6 6 9 7 13 14 13 15 13 15
4 5 5 15 17 17 17 18 16 16 16 16 16 16 17 17 16 15 16 15 15 17 18 18 16 16 16 15 14 14 13 11 6 6 5 4 7 13 13 14 13 14 14
4 3 5 13 16 17 17 17 18 15 16 15 15 15 15 16 17 17 17 16 15 16 16 17 16 15 16 15 14 13 12 10 6 6 5 5 10 12 12 13 12 13 14
6 4 7 6 11 15 16 16 17 16 16 15 15 14 14 15 17 18 16 16 16 15 14 13 14 15 15 15 14 12 11 11 6 4 4 3 11 12 11 11 11 13 11
8 8 6 6 6 7 9 12 14 15 13 13 13 14 12 12 15 16 15 15 15 14 13 12 13 15 15 14 13 12 10 10 5 4 3 2 9 10 10 10 10 11 11
10 9 7 5 5 5 7 9 11 13 13 12 10 11 13 8 9 10 10 13 15 14 12 12 12 13 13 12 12 11 9 3 4 3 1 6 8 9 9 9 9 9 9
9 10 6 7 5 5 7 6 6 6 6 7 7 9 7 8 9 8 8 12 14 13 12 12 13 12 9 4 4 8 3 4 3 3 1 5 8 8 8 8 8 7 7
6 5 7 6 5 5 5 3 3 3 4 4 8 10 9 7 4 6 5 5 4 8 4 6 6 4 6 4 4 4 4 4 2 2 2 4 6 7 7 7 6 6 5
8 7 8 6 6 5 3 4 5 5 5 6 7 11 9 6 6 6 5 5 5 3 5 5 3 5 5 5 6 5 5 4 2 2 2 4 5 6 6 6 5 5 4
7 7 8 6 5 5 4 4 5 6 5 7 7 10 9 7 8 7 5 5 4 4 4 5 5 4 5 5 5 6 5 5 5 2 2 5 4 5 5 5 4 4 4
8 8 7 7 7 5 5 6 5 7 7 7 8 10 13 9 8 7 6 5 4 5 4 5 6 6 4 4 5 5 5 5 5 4 3 3 5 5 5 5 5 4 4
9 8 8 8 7 6 6 5 4 7 9 8 9 13 13 12 11 10 7 5 5 4 5 5 4 4 4 3 4 4 5 5 5 5 4 3 3 6 6 7 6 6 7
11 10 9 8 7 7 6 5 5 4 9 9 9 9 14 14 13 11 8 7 5 4 4 4 5 4 4 4 3 4 4 4 5 5 4 3 3 2 3 6 7 8 7
12 11 11 8 9 9 7 5 6 7 8 9 9 9 13 13 14 11 9 7 8 5 4 5 2 3 3 3 4 3 3 4 4 3 5 5 4 3 2 4 5 5 7
13 13 12 9 10 8 6 4 3 3 5 7 9 10 14 11 14 12 9 9 9 7 5 4 4 2 3 4 3 3 1 2 3 4 4 3 4 4 4 4 2 2 4
12 12 12 12 10 8 6 6 7 7 5 3 7 15 16 15 15 14 9 11 11 11 10 9 4 5 2 4 4 2 1 1 2 1 1 2 2 2 3 2 1 2 3
15 15 13 13 12 11 8 6 4 6 6 8 8 10 8 12 13 12 11 10 12 9 8 9 6 4 3 6 4 3 2 1 1 2 2 2 4 2 3 3 3 3 3
14 14 15 14 13 12 12 6 3 3 2 4 7 9 11 14 15 14 12 11 11 10 9 10 9 10 6 5 5 5 3 5 2 1 2 2 3 2 2 2 2 3 3
15 13 13 13 14 13 14 13 15 10 8 6 9 9 11 16 15 16 15 14 13 10 11 10 9 7 5 8 1 1 2 4 4 2 1 2 2 3 4 2 3 3 3
11 14 14 14 13 15 14 16 13 13 9 7 8 11 13 13 16 16 16 17 14 11 11 12 10 9 7 8 5 3 2 1 2 3 3 3 1 2 2 3 2 3 3
8 11 12 13 15 15 15 16 17 17 12 9 9 10 10 9 11 14 15 15 15 12 10 9 11 12 10 7 8 5 5 4 4 3 3 2 3 2 2 3 4 4 4
Wind_Direction
213 165 159 154 148 147 143 143 134 131 131 132 133 134 136 136 136 132 130 128 118 110 108 109 110 106 102 97 88 94 91 89 89 86 82 88 86 87 87 82 67 79 77
155 165 161 156 149 150 149 147 147 137 134 135 137 137 140 139 139 136 135 133 122 120 114 112 110 105 97 93 94 96 97 97 93 86 75 87 87 85 80 79 79 77 73
153 161 159 158 151 151 148 146 144 140 138 140 140 141 141 141 136 140 140 136 126 120 114 114 110 102 101 97 99 101 100 101 93 86 80 87 85 86 85 85 80 80 79
154 156 162 161 153 152 148 148 147 144 142 143 143 144 144 142 137 138 142 141 127 123 117 109 101 110 107 104 106 107 105 100 88 73 52 60 89 95 89 80 83 73 75
173 157 161 166 157 155 154 153 153 150 149 147 147 146 148 147 144 141 144 129 128 121 111 105 104 114 116 111 110 112 109 102 89 76 70 61 68 81 84 90 78 79 85
139 156 162 166 165 162 158 155 160 157 156 154 154 152 152 147 147 146 140 128 125 121 115 113 109 119 117 117 117 116 109 99 85 70 59 91 89 98 91 79 88 79 78
144 140 180 172 172 167 165 160 168 165 162 161 162 159 151 150 154 149 135 130 127 123 122 121 117 116 125 123 121 120 112 99 89 78 70 51 86 92 91 89 80 85 73
190 167 200 187 180 175 172 167 170 170 164 167 168 164 156 153 141 137 134 133 132 131 132 130 125 131 128 127 125 123 113 98 83 79 67 76 94 92 90 87 88 82 85
357 276 202 202 193 181 178 172 172 174 169 166 166 165 154 148 142 144 141 140 140 144 139 136 128 135 132 128 128 124 114 107 96 90 77 52 101 102 97 96 97 89 91
21 18 327 236 191 198 183 175 175 171 169 164 161 156 146 148 145 149 145 146 145 144 142 140 130 136 132 132 132 126 110 105 103 93 85 110 110 108 103 100 97 94 90
357 3 355 337 269 208 193 189 187 179 174 155 154 147 143 146 144 146 149 145 145 145 148 144 132 135 133 132 129 117 113 108 108 99 92 118 112 111 105 101 97 95 93
335 337 353 346 319 272 224 192 190 188 170 160 149 151 152 155 151 145 149 146 150 147 150 148 136 131 117 114 113 115 115 122 115 129 163 134 125 118 113 108 104 100 98
301 314 332 336 328 294 245 183 194 171 162 156 150 158 159 159 148 147 149 152 145 139 140 136 126 117 128 131 128 127 131 137 142 157 189 154 136 128 123 119 118 116 113
293 293 311 322 319 295 289 206 193 177 170 167 171 165 164 162 164 158 162 158 152 159 150 140 133 138 134 139 150 146 151 154 166 183 213 173 161 147 144 141 139 140 139
271 280 282 300 298 302 269 262 188 188 176 170 174 174 170 172 169 169 163 165 163 154 155 147 145 149 149 152 153 161 168 172 180 190 200 209 189 172 171 165 169 176 174
243 257 262 273 271 282 276 252 237 185 184 169 182 185 176 172 173 179 173 168 170 175 156 153 160 157 167 163 167 183 184 181 187 192 203 219 214 208 208 204 207 216 217
236 236 250 246 251 257 255 259 226 203 180 181 185 185 181 175 179 174 169 177 179 174 152 136 146 142 151 179 203 188 181 186 196 199 205 209 232 233 236 239 236 240 242
229 236 231 237 223 232 239 238 235 219 192 184 185 190 186 183 178 180 175 179 165 157 161 164 155 161 167 177 177 192 184 184 203 203 203 210 214 230 260 266 289 300 306
221 233 243 226 225 223 231 229 225 216 206 193 181 186 190 186 176 180 184 183 159 162 171 178 152 141 170 179 172 167 180 196 208 196 218 219 214 219 232 269 284 301 297
215 218 230 232 221 213 222 214 236 232 194 193 182 187 184 184 183 174 180 174 171 166 171 172 159 160 163 169 143 135 146 201 203 215 224 224 222 216 213 238 280 313 337
223 220 216 225 217 205 206 207 215 212 199 195 192 201 187 184 180 187 186 179 175 181 181 178 148 162 148 150 104 53 26 182 201 209 181 169 157 171 169 132 102 97 86
219 217 219 217 214 211 207 203 182 182 212 212 196 174 184 183 183 185 184 189 184 183 171 179 163 146 153 178 154 127 172 297 305 204 158 151 137 137 119 80 88 98 94
220 212 214 216 212 210 206 194 191 166 89 174 201 188 195 187 187 186 184 188 186 186 182 183 187 173 173 194 224 144 139 216 139 244 209 167 160 168 127 129 123 116 127
218 218 215 216 213 213 202 204 206 210 196 190 200 200 193 197 191 184 185 187 182 194 181 187 189 190 142 186 250 236 93 143 169 184 246 210 176 176 173 164 154 129 123
219 210 214 210 214 212 204 205 205 207 201 188 199 202 195 198 206 195 191 189 186 186 191 186 188 189 194 179 186 151 140 101 104 135 179 190 242 196 161 155 167 138 147
209 205 214 221 217 212 206 205 206 204 198 191 190 196 204 192 199 195 193 193 182 179 187 188 195 200 199 196 192 180 173 164 181 155 135 158 182 195 176 154 176 177 180